| time (UTC) | temp C | wind direction | speed KPH | gust KPH | rain 1hr cm | rain 24hr cm | rain mn cm | humidity % | barometer mb |
| 20260902060405 | 16 | 118 | 0.0 | 0.0 | 0.00 | 0.00 | 0.00 | 92 | 1020.1 |
| 20260902055905 | 16 | 118 | 0.0 | 0.0 | 0.00 | 0.00 | 0.00 | 92 | 1020.1 |
| 20260902054905 | 16 | 118 | 0.0 | 0.0 | 0.00 | 0.00 | 0.00 | 92 | 1020.0 |
| 20260902054405 | 16 | 118 | 0.0 | 0.0 | 0.00 | 0.00 | 0.00 | 91 | 1020.0 |
| 20260902053905 | 16 | 118 | 0.0 | 0.0 | 0.00 | 0.00 | 0.00 | 91 | 1020.0 |
| 20260902052405 | 16 | 118 | 0.0 | 0.0 | 0.00 | 0.00 | 0.00 | 91 | 1020.1 |
| 20260902051405 | 16 | 118 | 0.0 | 0.0 | 0.00 | 0.00 | 0.00 | 91 | 1020.0 |
| 20260902050904 | 16 | 118 | 0.0 | 0.0 | 0.00 | 0.00 | 0.00 | 91 | 1020.0 |
| 20260902050405 | 16 | 118 | 0.0 | 1.6 | 0.00 | 0.00 | 0.00 | 91 | 1019.9 |
| 20260902045905 | 16 | 118 | 0.0 | 0.0 | 0.00 | 0.00 | 0.00 | 91 | 1019.8 |
| 20260902045405 | 17 | 118 | 0.0 | 0.0 | 0.00 | 0.00 | 0.00 | 91 | 1019.9 |
| 20260902044405 | 17 | 118 | 0.0 | 4.8 | 0.00 | 0.00 | 0.00 | 91 | 1019.8 |
| 20260902043904 | 17 | 118 | 0.0 | 3.2 | 0.00 | 0.00 | 0.00 | 91 | 1019.8 |
| 20260902043405 | 17 | 118 | 0.0 | 0.0 | 0.00 | 0.00 | 0.00 | 91 | 1019.9 |
| 20260902042905 | 17 | 118 | 0.0 | 0.0 | 0.00 | 0.00 | 0.00 | 91 | 1019.7 |
| 20260902042405 | 17 | 118 | 0.0 | 0.0 | 0.00 | 0.00 | 0.00 | 91 | 1019.8 |
| 20260902041905 | 17 | 118 | 0.0 | 4.8 | 0.00 | 0.00 | 0.00 | 90 | 1019.7 |
| 20260902041405 | 17 | 118 | 0.0 | 0.0 | 0.00 | 0.00 | 0.00 | 90 | 1019.7 |
| 20260902040905 | 17 | 118 | 0.0 | 0.0 | 0.00 | 0.00 | 0.00 | 90 | 1019.8 |
| 20260902040404 | 17 | 118 | 0.0 | 0.0 | 0.00 | 0.00 | 0.00 | 90 | 1019.8 |
| 20260902035904 | 17 | 118 | 0.0 | 4.8 | 0.00 | 0.00 | 0.00 | 90 | 1019.8 |
| 20260902035405 | 17 | 118 | 1.6 | 4.8 | 0.00 | 0.00 | 0.00 | 90 | 1019.9 |
| 20260902034905 | 17 | 118 | 1.6 | 4.8 | 0.00 | 0.00 | 0.00 | 90 | 1019.9 |
| 20260902034405 | 17 | 118 | 0.0 | 4.8 | 0.00 | 0.00 | 0.00 | 90 | 1019.9 |
| 20260902033404 | 17 | 118 | 0.0 | 0.0 | 0.00 | 0.00 | 0.00 | 90 | 1019.9 |
| 20260902032904 | 17 | 118 | 0.0 | 4.8 | 0.00 | 0.00 | 0.00 | 89 | 1020.0 |
| 20260902032405 | 17 | 118 | 0.0 | 0.0 | 0.00 | 0.00 | 0.00 | 89 | 1019.9 |
| 20260902031904 | 17 | 118 | 0.0 | 0.0 | 0.00 | 0.00 | 0.00 | 90 | 1020.1 |
| 20260902030905 | 17 | 118 | 0.0 | 4.8 | 0.00 | 0.00 | 0.00 | 89 | 1020.0 |
| 20260902030405 | 17 | 118 | 1.6 | 4.8 | 0.00 | 0.00 | 0.00 | 89 | 1020.0 |
| 20260902025904 | 17 | 118 | 1.6 | 8.0 | 0.00 | 0.00 | 0.00 | 89 | 1020.0 |
| 20260902025404 | 17 | 118 | 1.6 | 9.7 | 0.00 | 0.00 | 0.00 | 89 | 1020.1 |
| 20260902024405 | 17 | 118 | 0.0 | 4.8 | 0.00 | 0.00 | 0.00 | 89 | 1020.1 |
| 20260902023905 | 17 | 118 | 0.0 | 4.8 | 0.00 | 0.00 | 0.00 | 89 | 1020.0 |
| 20260902023405 | 17 | 118 | 1.6 | 9.7 | 0.00 | 0.00 | 0.00 | 88 | 1020.0 |
| 20260902021905 | 17 | 118 | 0.0 | 3.2 | 0.00 | 0.00 | 0.00 | 88 | 1020.1 |
| 20260902021405 | 17 | 118 | 1.6 | 9.7 | 0.00 | 0.00 | 0.00 | 88 | 1020.2 |
| 20260902020905 | 17 | 160 | 0.0 | 4.8 | 0.00 | 0.00 | 0.00 | 88 | 1020.3 |
| 20260902020405 | 17 | 161 | 1.6 | 9.7 | 0.00 | 0.00 | 0.00 | 88 | 1020.3 |
| 20260902015904 | 17 | 161 | 0.0 | 0.0 | 0.00 | 0.00 | 0.00 | 88 | 1020.3 |
| 20260902015404 | 17 | 161 | 0.0 | 3.2 | 0.00 | 0.00 | 0.00 | 88 | 1020.4 |
| 20260902014905 | 17 | 161 | 0.0 | 3.2 | 0.00 | 0.00 | 0.00 | 88 | 1020.4 |
| 20260902014404 | 17 | 161 | 3.2 | 8.0 | 0.00 | 0.00 | 0.00 | 88 | 1020.4 |
| 20260902013904 | 17 | 162 | 0.0 | 1.6 | 0.00 | 0.00 | 0.00 | 88 | 1020.5 |
| 20260902013404 | 17 | 162 | 0.0 | 0.0 | 0.00 | 0.00 | 0.00 | 88 | 1020.5 |
| 20260902012905 | 17 | 162 | 0.0 | 0.0 | 0.00 | 0.00 | 0.00 | 88 | 1020.4 |
| 20260902012404 | 17 | 162 | 0.0 | 4.8 | 0.00 | 0.00 | 0.00 | 88 | 1020.4 |
| 20260902011904 | 17 | 113 | 3.2 | 9.7 | 0.00 | 0.00 | 0.00 | 88 | 1020.4 |
| 20260902011405 | 17 | 334 | 3.2 | 9.7 | 0.00 | 0.00 | 0.00 | 88 | 1020.5 |
| 20260902010905 | 17 | 129 | 3.2 | 11.3 | 0.00 | 0.00 | 0.00 | 88 | 1020.5 |
| 20260902010404 | 17 | 130 | 1.6 | 9.7 | 0.00 | 0.00 | 0.00 | 88 | 1020.5 |
| 20260902005904 | 17 | 130 | 0.0 | 3.2 | 0.00 | 0.00 | 0.00 | 88 | 1020.5 |
| 20260902005405 | 17 | 130 | 1.6 | 4.8 | 0.00 | 0.00 | 0.00 | 88 | 1020.5 |
| 20260902004904 | 17 | 168 | 1.6 | 12.9 | 0.00 | 0.00 | 0.00 | 88 | 1020.6 |
| 20260902004404 | 17 | 139 | 3.2 | 9.7 | 0.00 | 0.00 | 0.00 | 88 | 1020.5 |
| 20260902003904 | 17 | 168 | 4.8 | 11.3 | 0.00 | 0.00 | 0.00 | 88 | 1020.6 |
| 20260902001904 | 17 | 100 | 0.0 | 9.7 | 0.00 | 0.00 | 0.00 | 88 | 1020.5 |
| 20260902001405 | 17 | 108 | 3.2 | 19.3 | 0.00 | 0.00 | 0.00 | 88 | 1020.6 |
| 20260902000905 | 17 | 120 | 1.6 | 14.5 | 0.00 | 0.00 | 0.00 | 88 | 1020.6 |
| 20260902000406 | 17 | 129 | 1.6 | 12.9 | 0.00 | 0.00 | 0.00 | 88 | 1020.5 |
| 20260901235905 | 17 | 85 | 0.0 | 14.5 | 0.00 | 0.00 | 0.00 | 88 | 1020.4 |
| 20260901235404 | 17 | 143 | 1.6 | 11.3 | 0.00 | 0.00 | 0.00 | 88 | 1020.3 |
| 20260901234905 | 17 | 106 | 6.4 | 16.1 | 0.00 | 0.00 | 0.00 | 88 | 1020.2 |
| 20260901233904 | 17 | 137 | 4.8 | 20.9 | 0.00 | 0.00 | 0.00 | 87 | 1020.2 |
| 20260901233404 | 17 | 109 | 4.8 | 16.1 | 0.00 | 0.00 | 0.00 | 87 | 1020.2 |
| 20260901232904 | 17 | 153 | 4.8 | 19.3 | 0.00 | 0.00 | 0.00 | 87 | 1020.3 |
| 20260901232404 | 17 | 102 | 4.8 | 12.9 | 0.00 | 0.00 | 0.00 | 87 | 1020.4 |
| 20260901231905 | 17 | 134 | 8.0 | 12.9 | 0.00 | 0.00 | 0.00 | 86 | 1020.4 |
| 20260901231404 | 17 | 117 | 4.8 | 12.9 | 0.00 | 0.00 | 0.00 | 86 | 1020.3 |
| 20260901230904 | 18 | 132 | 8.0 | 14.5 | 0.00 | 0.00 | 0.00 | 85 | 1020.4 |
| 20260901230404 | 18 | 114 | 8.0 | 19.3 | 0.00 | 0.00 | 0.00 | 85 | 1020.4 |
| 20260901225904 | 18 | 123 | 3.2 | 16.1 | 0.00 | 0.00 | 0.00 | 85 | 1020.4 |
| 20260901225404 | 18 | 131 | 8.0 | 16.1 | 0.00 | 0.00 | 0.00 | 84 | 1020.3 |
| 20260901224404 | 18 | 109 | 1.6 | 12.9 | 0.00 | 0.00 | 0.00 | 84 | 1020.4 |
| 20260901223905 | 18 | 113 | 8.0 | 16.1 | 0.00 | 0.00 | 0.00 | 84 | 1020.4 |
| 20260901222904 | 18 | 128 | 6.4 | 16.1 | 0.00 | 0.00 | 0.00 | 83 | 1020.6 |
| 20260901222405 | 18 | 155 | 4.8 | 11.3 | 0.00 | 0.00 | 0.00 | 83 | 1020.5 |
| 20260901221904 | 18 | 116 | 3.2 | 11.3 | 0.00 | 0.00 | 0.00 | 82 | 1020.4 |
| 20260901221405 | 18 | 131 | 4.8 | 14.5 | 0.00 | 0.00 | 0.00 | 82 | 1020.4 |
| 20260901220905 | 18 | 137 | 6.4 | 14.5 | 0.00 | 0.00 | 0.00 | 82 | 1020.4 |
| 20260901220404 | 18 | 116 | 9.7 | 14.5 | 0.00 | 0.00 | 0.00 | 81 | 1020.5 |
| 20260901215404 | 18 | 130 | 6.4 | 16.1 | 0.00 | 0.00 | 0.00 | 81 | 1020.4 |
| 20260901214904 | 18 | 124 | 1.6 | 16.1 | 0.00 | 0.00 | 0.00 | 80 | 1020.5 |
| 20260901214404 | 19 | 117 | 4.8 | 14.5 | 0.00 | 0.00 | 0.00 | 80 | 1020.6 |
| 20260901213904 | 19 | 114 | 1.6 | 11.3 | 0.00 | 0.00 | 0.00 | 79 | 1020.4 |
| 20260901213404 | 19 | 138 | 4.8 | 16.1 | 0.00 | 0.00 | 0.00 | 79 | 1020.5 |
| 20260901212905 | 19 | 30 | 4.8 | 14.5 | 0.00 | 0.00 | 0.00 | 79 | 1020.6 |
| 20260901212405 | 19 | 138 | 1.6 | 9.7 | 0.00 | 0.00 | 0.00 | 78 | 1020.5 |
| 20260901211905 | 19 | 113 | 1.6 | 11.3 | 0.00 | 0.00 | 0.00 | 78 | 1020.5 |
| 20260901211405 | 19 | 108 | 3.2 | 16.1 | 0.00 | 0.00 | 0.00 | 77 | 1020.4 |
| 20260901210907 | 20 | 162 | 4.8 | 16.1 | 0.00 | 0.00 | 0.00 | 76 | 1020.3 |
| 20260901210405 | 20 | 167 | 3.2 | 14.5 | 0.00 | 0.00 | 0.00 | 76 | 1020.3 |
| 20260901205905 | 20 | 122 | 1.6 | 11.3 | 0.00 | 0.00 | 0.00 | 75 | 1020.2 |
| 20260901205404 | 20 | 155 | 3.2 | 14.5 | 0.00 | 0.00 | 0.00 | 74 | 1020.1 |
| 20260901204904 | 20 | 104 | 4.8 | 14.5 | 0.00 | 0.00 | 0.00 | 74 | 1020.1 |
| 20260901204404 | 20 | 135 | 1.6 | 12.9 | 0.00 | 0.00 | 0.00 | 73 | 1020.1 |
| 20260901203905 | 20 | 167 | 3.2 | 19.3 | 0.00 | 0.00 | 0.00 | 73 | 1020.0 |
| 20260901203404 | 20 | 137 | 3.2 | 19.3 | 0.00 | 0.00 | 0.00 | 72 | 1020.0 |
| 20260901202905 | 20 | 134 | 1.6 | 16.1 | 0.00 | 0.00 | 0.00 | 71 | 1020.0 |
| 20260901202405 | 20 | 128 | 8.0 | 16.1 | 0.00 | 0.00 | 0.00 | 71 | 1020.0 |
| 20260901201904 | 21 | 143 | 3.2 | 14.5 | 0.00 | 0.00 | 0.00 | 70 | 1020.0 |
| 20260901200404 | 21 | 167 | 3.2 | 14.5 | 0.00 | 0.00 | 0.00 | 68 | 1019.8 |
| 20260901195404 | 21 | 97 | 3.2 | 12.9 | 0.00 | 0.00 | 0.00 | 67 | 1019.6 |
| 20260901194904 | 21 | 62 | 1.6 | 9.7 | 0.00 | 0.00 | 0.00 | 67 | 1019.5 |
| 20260901194404 | 21 | 133 | 1.6 | 11.3 | 0.00 | 0.00 | 0.00 | 67 | 1019.4 |
| 20260901193904 | 21 | 86 | 3.2 | 12.9 | 0.00 | 0.00 | 0.00 | 66 | 1019.4 |
| 20260901193404 | 21 | 101 | 1.6 | 19.3 | 0.00 | 0.00 | 0.00 | 66 | 1019.4 |
| 20260901192906 | 22 | 65 | 4.8 | 16.1 | 0.00 | 0.00 | 0.00 | 66 | 1019.4 |
| 20260901192405 | 22 | 170 | 1.6 | 19.3 | 0.00 | 0.00 | 0.00 | 65 | 1019.4 |
| 20260901191905 | 22 | 126 | 4.8 | 19.3 | 0.00 | 0.00 | 0.00 | 64 | 1019.4 |
| 20260901191405 | 22 | 109 | 1.6 | 11.3 | 0.00 | 0.00 | 0.00 | 64 | 1019.4 |
| 20260901190905 | 22 | 115 | 3.2 | 16.1 | 0.00 | 0.00 | 0.00 | 64 | 1019.3 |
| 20260901190405 | 22 | 79 | 0.0 | 11.3 | 0.00 | 0.00 | 0.00 | 63 | 1019.4 |
| 20260901185906 | 22 | 111 | 4.8 | 20.9 | 0.00 | 0.00 | 0.00 | 62 | 1019.3 |
| 20260901185405 | 23 | 147 | 1.6 | 11.3 | 0.00 | 0.00 | 0.00 | 63 | 1019.3 |
| 20260901184406 | 23 | 121 | 1.6 | 19.3 | 0.00 | 0.00 | 0.00 | 61 | 1019.1 |
| 20260901183905 | 23 | 153 | 0.0 | 20.9 | 0.00 | 0.00 | 0.00 | 61 | 1019.1 |
| 20260901183405 | 23 | 105 | 1.6 | 14.5 | 0.00 | 0.00 | 0.00 | 61 | 1019.0 |
| 20260901182905 | 23 | 126 | 3.2 | 16.1 | 0.00 | 0.00 | 0.00 | 60 | 1019.0 |
| 20260901182405 | 24 | 119 | 1.6 | 16.1 | 0.00 | 0.00 | 0.00 | 59 | 1019.0 |
| 20260901181905 | 24 | 113 | 4.8 | 16.1 | 0.00 | 0.00 | 0.00 | 58 | 1019.0 |
| 20260901181405 | 25 | 51 | 1.6 | 14.5 | 0.00 | 0.00 | 0.00 | 59 | 1018.8 |
| 20260901180905 | 25 | 98 | 4.8 | 20.9 | 0.00 | 0.00 | 0.00 | 59 | 1018.9 |
| 20260901180405 | 25 | 108 | 3.2 | 16.1 | 0.00 | 0.00 | 0.00 | 59 | 1018.9 |
| 20260901175405 | 25 | 93 | 4.8 | 19.3 | 0.00 | 0.00 | 0.00 | 59 | 1018.8 |
| 20260901174905 | 25 | 88 | 4.8 | 19.3 | 0.00 | 0.00 | 0.00 | 58 | 1018.7 |
| 20260901173905 | 26 | 170 | 1.6 | 32.2 | 0.00 | 0.00 | 0.00 | 58 | 1018.7 |
| 20260901173406 | 26 | 117 | 8.0 | 24.1 | 0.00 | 0.00 | 0.00 | 57 | 1018.7 |
| 20260901172905 | 26 | 152 | 6.4 | 24.1 | 0.00 | 0.00 | 0.00 | 56 | 1018.7 |
| 20260901172406 | 26 | 113 | 4.8 | 16.1 | 0.00 | 0.00 | 0.00 | 55 | 1018.7 |
| 20260901171908 | 26 | 158 | 1.6 | 19.3 | 0.00 | 0.00 | 0.00 | 55 | 1018.7 |
| 20260901170906 | 27 | 81 | 4.8 | 24.1 | 0.00 | 0.00 | 0.00 | 54 | 1018.5 |
| 20260901170405 | 27 | 119 | 3.2 | 24.1 | 0.00 | 0.00 | 0.00 | 54 | 1018.5 |
| 20260901165905 | 27 | 115 | 4.8 | 19.3 | 0.00 | 0.00 | 0.00 | 53 | 1018.4 |
| 20260901165405 | 28 | 92 | 4.8 | 32.2 | 0.00 | 0.00 | 0.00 | 52 | 1018.3 |
| 20260901163406 | 28 | 146 | 4.8 | 25.7 | 0.00 | 0.00 | 0.00 | 51 | 1018.2 |
| 20260901162905 | 28 | 104 | 4.8 | 19.3 | 0.00 | 0.00 | 0.00 | 50 | 1018.1 |
| 20260901162405 | 28 | 83 | 3.2 | 12.9 | 0.00 | 0.00 | 0.00 | 50 | 1018.1 |
| 20260901161905 | 28 | 85 | 3.2 | 12.9 | 0.00 | 0.00 | 0.00 | 49 | 1018.1 |
| 20260901161406 | 29 | 122 | 3.2 | 14.5 | 0.00 | 0.00 | 0.00 | 49 | 1018.1 |
| 20260901160905 | 28 | 107 | 1.6 | 16.1 | 0.00 | 0.00 | 0.00 | 49 | 1018.2 |
| 20260901155905 | 28 | 137 | 1.6 | 12.9 | 0.00 | 0.00 | 0.00 | 49 | 1018.1 |
| 20260901155405 | 28 | 158 | 4.8 | 19.3 | 0.00 | 0.00 | 0.00 | 49 | 1018.1 |
| 20260901154905 | 29 | 128 | 3.2 | 22.5 | 0.00 | 0.00 | 0.00 | 49 | 1018.1 |
| 20260901153905 | 29 | 164 | 1.6 | 22.5 | 0.00 | 0.00 | 0.00 | 49 | 1018.0 |
| 20260901153405 | 29 | 136 | 3.2 | 14.5 | 0.00 | 0.00 | 0.00 | 49 | 1018.1 |
| 20260901152905 | 29 | 129 | 4.8 | 16.1 | 0.00 | 0.00 | 0.00 | 49 | 1018.2 |
| 20260901152405 | 29 | 95 | 4.8 | 19.3 | 0.00 | 0.00 | 0.00 | 49 | 1018.1 |
| 20260901151905 | 29 | 118 | 3.2 | 12.9 | 0.00 | 0.00 | 0.00 | 49 | 1018.2 |
| 20260901151405 | 29 | 94 | 4.8 | 19.3 | 0.00 | 0.00 | 0.00 | 49 | 1018.1 |
| 20260901150906 | 29 | 99 | 3.2 | 14.5 | 0.00 | 0.00 | 0.00 | 49 | 1018.2 |
| 20260901150405 | 30 | 125 | 4.8 | 16.1 | 0.00 | 0.00 | 0.00 | 49 | 1018.2 |
| 20260901145905 | 29 | 98 | 1.6 | 16.1 | 0.00 | 0.00 | 0.00 | 49 | 1018.1 |
| 20260901145405 | 29 | 127 | 3.2 | 16.1 | 0.00 | 0.00 | 0.00 | 49 | 1018.2 |
| 20260901144905 | 29 | 113 | 1.6 | 12.9 | 0.00 | 0.00 | 0.00 | 49 | 1018.1 |
| 20260901144405 | 29 | 77 | 0.0 | 11.3 | 0.00 | 0.00 | 0.00 | 49 | 1018.2 |
| 20260901143905 | 29 | 112 | 0.0 | 12.9 | 0.00 | 0.00 | 0.00 | 49 | 1018.2 |
| 20260901143405 | 28 | 78 | 0.0 | 11.3 | 0.00 | 0.00 | 0.00 | 50 | 1018.2 |
| 20260901142905 | 29 | 135 | 3.2 | 14.5 | 0.00 | 0.00 | 0.00 | 49 | 1018.3 |
| 20260901142405 | 28 | 136 | 4.8 | 14.5 | 0.00 | 0.00 | 0.00 | 49 | 1018.4 |
| 20260901141905 | 28 | 70 | 0.0 | 19.3 | 0.00 | 0.00 | 0.00 | 50 | 1018.4 |
| 20260901141405 | 28 | 145 | 3.2 | 16.1 | 0.00 | 0.00 | 0.00 | 49 | 1018.5 |
| 20260901140405 | 29 | 142 | 8.0 | 19.3 | 0.00 | 0.00 | 0.00 | 48 | 1018.6 |
| 20260901135905 | 28 | 106 | 0.0 | 4.8 | 0.00 | 0.00 | 0.00 | 50 | 1018.6 |
| 20260901135406 | 28 | 67 | 1.6 | 19.3 | 0.00 | 0.00 | 0.00 | 51 | 1018.7 |
| 20260901134905 | 28 | 115 | 4.8 | 16.1 | 0.00 | 0.00 | 0.00 | 50 | 1018.8 |
| 20260901133405 | 28 | 144 | 0.0 | 11.3 | 0.00 | 0.00 | 0.00 | 51 | 1018.9 |
| 20260901132905 | 28 | 63 | 4.8 | 20.9 | 0.00 | 0.00 | 0.00 | 51 | 1018.9 |
| 20260901132405 | 28 | 125 | 3.2 | 19.3 | 0.00 | 0.00 | 0.00 | 51 | 1019.0 |
| 20260901131905 | 28 | 99 | 1.6 | 16.1 | 0.00 | 0.00 | 0.00 | 50 | 1019.0 |
| 20260901131405 | 28 | 84 | 3.2 | 16.1 | 0.00 | 0.00 | 0.00 | 51 | 1019.0 |
| 20260901130906 | 28 | 87 | 3.2 | 16.1 | 0.00 | 0.00 | 0.00 | 51 | 1018.9 |
| 20260901130405 | 28 | 97 | 3.2 | 16.1 | 0.00 | 0.00 | 0.00 | 51 | 1019.0 |
| 20260901125405 | 28 | 178 | 1.6 | 11.3 | 0.00 | 0.00 | 0.00 | 53 | 1019.0 |
| 20260901124905 | 28 | 43 | 0.0 | 4.8 | 0.00 | 0.00 | 0.00 | 53 | 1019.1 |
| 20260901124405 | 27 | 42 | 0.0 | 16.1 | 0.00 | 0.00 | 0.00 | 53 | 1019.1 |
| 20260901123905 | 27 | 95 | 3.2 | 16.1 | 0.00 | 0.00 | 0.00 | 54 | 1019.2 |
| 20260901123405 | 27 | 135 | 1.6 | 19.3 | 0.00 | 0.00 | 0.00 | 55 | 1019.1 |
| 20260901122905 | 26 | 127 | 1.6 | 19.3 | 0.00 | 0.00 | 0.00 | 57 | 1019.2 |
| 20260901122405 | 26 | 169 | 6.4 | 14.5 | 0.00 | 0.00 | 0.00 | 57 | 1019.3 |
| 20260901121905 | 26 | 114 | 8.0 | 19.3 | 0.00 | 0.00 | 0.00 | 57 | 1019.3 |
| 20260901121406 | 26 | 131 | 4.8 | 12.9 | 0.00 | 0.00 | 0.00 | 58 | 1019.3 |
| 20260901120905 | 26 | 145 | 9.7 | 25.7 | 0.00 | 0.00 | 0.00 | 57 | 1019.3 |
| 20260901120405 | 26 | 53 | 1.6 | 19.3 | 0.00 | 0.00 | 0.00 | 58 | 1019.3 |
| 20260901115905 | 26 | 100 | 3.2 | 19.3 | 0.00 | 0.00 | 0.00 | 59 | 1019.4 |
| 20260901115405 | 26 | 143 | 1.6 | 16.1 | 0.00 | 0.00 | 0.00 | 58 | 1019.5 |
| 20260901114905 | 26 | 109 | 3.2 | 16.1 | 0.00 | 0.00 | 0.00 | 59 | 1019.4 |
| 20260901114405 | 26 | 191 | 3.2 | 14.5 | 0.00 | 0.00 | 0.00 | 59 | 1019.5 |
| 20260901113905 | 25 | 32 | 0.0 | 14.5 | 0.00 | 0.00 | 0.00 | 60 | 1019.6 |
| 20260901113405 | 25 | 103 | 1.6 | 16.1 | 0.00 | 0.00 | 0.00 | 62 | 1019.7 |
| 20260901112905 | 25 | 41 | 1.6 | 12.9 | 0.00 | 0.00 | 0.00 | 62 | 1019.8 |
| 20260901112405 | 25 | 112 | 1.6 | 19.3 | 0.00 | 0.00 | 0.00 | 63 | 1019.9 |
| 20260901111905 | 25 | 121 | 6.4 | 19.3 | 0.00 | 0.00 | 0.00 | 63 | 1019.9 |
| 20260901111405 | 25 | 158 | 3.2 | 16.1 | 0.00 | 0.00 | 0.00 | 62 | 1019.9 |
| 20260901110905 | 25 | 93 | 6.4 | 19.3 | 0.00 | 0.00 | 0.00 | 64 | 1020.0 |
| 20260901110405 | 25 | 124 | 4.8 | 16.1 | 0.00 | 0.00 | 0.00 | 63 | 1020.0 |
| 20260901105905 | 25 | 86 | 3.2 | 19.3 | 0.00 | 0.00 | 0.00 | 64 | 1020.0 |
| 20260901105405 | 23 | 118 | 9.7 | 16.1 | 0.00 | 0.00 | 0.00 | 65 | 1020.0 |
| 20260901104905 | 23 | 128 | 9.7 | 29.0 | 0.00 | 0.00 | 0.00 | 66 | 1020.0 |
| 20260901104405 | 23 | 115 | 3.2 | 19.3 | 0.00 | 0.00 | 0.00 | 66 | 1020.1 |
| 20260901103905 | 23 | 77 | 3.2 | 19.3 | 0.00 | 0.00 | 0.00 | 68 | 1020.1 |
| 20260901103405 | 23 | 94 | 4.8 | 19.3 | 0.00 | 0.00 | 0.00 | 67 | 1020.1 |
| 20260901102905 | 23 | 128 | 1.6 | 12.9 | 0.00 | 0.00 | 0.00 | 68 | 1020.1 |
| 20260901101405 | 23 | 129 | 3.2 | 12.9 | 0.00 | 0.00 | 0.00 | 69 | 1020.2 |
| 20260901100905 | 22 | 131 | 3.2 | 12.9 | 0.00 | 0.00 | 0.00 | 70 | 1020.2 |
| 20260901095905 | 22 | 93 | 1.6 | 14.5 | 0.00 | 0.00 | 0.00 | 74 | 1020.1 |
| 20260901095404 | 21 | 120 | 6.4 | 24.1 | 0.00 | 0.00 | 0.00 | 73 | 1020.1 |
| 20260901094905 | 21 | 127 | 3.2 | 19.3 | 0.00 | 0.00 | 0.00 | 76 | 1020.0 |
| 20260901094405 | 20 | 106 | 1.6 | 14.5 | 0.00 | 0.00 | 0.00 | 78 | 1020.0 |
| 20260901093905 | 20 | 85 | 1.6 | 12.9 | 0.00 | 0.00 | 0.00 | 77 | 1019.9 |
| 20260901092904 | 20 | 127 | 3.2 | 19.3 | 0.00 | 0.00 | 0.00 | 77 | 1019.9 |
| 20260901092405 | 20 | 141 | 1.6 | 12.9 | 0.00 | 0.00 | 0.00 | 77 | 1019.9 |
| 20260901091905 | 20 | 133 | 3.2 | 19.3 | 0.00 | 0.00 | 0.00 | 76 | 1019.9 |
| 20260901091405 | 21 | 121 | 4.8 | 19.3 | 0.00 | 0.00 | 0.00 | 75 | 1019.8 |
| 20260901090405 | 21 | 104 | 3.2 | 16.1 | 0.00 | 0.00 | 0.00 | 74 | 1019.8 |
| 20260901085905 | 21 | 106 | 3.2 | 14.5 | 0.00 | 0.00 | 0.00 | 74 | 1019.7 |
| 20260901085404 | 21 | 81 | 1.6 | 9.7 | 0.00 | 0.00 | 0.00 | 73 | 1019.8 |
| 20260901084905 | 21 | 85 | 1.6 | 11.3 | 0.00 | 0.00 | 0.00 | 73 | 1019.8 |
| 20260901084405 | 21 | 142 | 8.0 | 16.1 | 0.00 | 0.00 | 0.00 | 73 | 1019.8 |
| 20260901083405 | 21 | 135 | 4.8 | 19.3 | 0.00 | 0.00 | 0.00 | 76 | 1019.7 |
| 20260901082405 | 20 | 349 | 1.6 | 20.9 | 0.00 | 0.00 | 0.00 | 77 | 1019.6 |
| 20260901081905 | 20 | 145 | 1.6 | 14.5 | 0.00 | 0.00 | 0.00 | 78 | 1019.7 |
| 20260901080905 | 20 | 119 | 4.8 | 14.5 | 0.00 | 0.00 | 0.00 | 79 | 1019.7 |
| 20260901080405 | 20 | 158 | 3.2 | 16.1 | 0.00 | 0.00 | 0.00 | 79 | 1019.7 |
| 20260901075904 | 20 | 77 | 0.0 | 9.7 | 0.00 | 0.00 | 0.00 | 81 | 1019.7 |
| 20260901075405 | 19 | 121 | 1.6 | 19.3 | 0.00 | 0.00 | 0.00 | 81 | 1019.6 |
| 20260901074905 | 19 | 111 | 1.6 | 11.3 | 0.00 | 0.00 | 0.00 | 82 | 1019.6 |
| 20260901074405 | 18 | 147 | 1.6 | 12.9 | 0.00 | 0.00 | 0.00 | 83 | 1019.6 |
| 20260901073905 | 18 | 111 | 0.0 | 12.9 | 0.00 | 0.00 | 0.00 | 83 | 1019.4 |
| 20260901073405 | 18 | 126 | 3.2 | 12.9 | 0.00 | 0.00 | 0.00 | 84 | 1019.4 |
| 20260901072905 | 18 | 143 | 3.2 | 12.9 | 0.00 | 0.00 | 0.00 | 84 | 1019.4 |
| 20260901072405 | 18 | 153 | 3.2 | 22.5 | 0.00 | 0.00 | 0.00 | 85 | 1019.3 |
| 20260901071905 | 18 | 73 | 1.6 | 19.3 | 0.00 | 0.00 | 0.00 | 86 | 1019.3 |
| 20260901071405 | 18 | 170 | 3.2 | 16.1 | 0.00 | 0.00 | 0.00 | 87 | 1019.3 |
| 20260901070904 | 18 | 146 | 1.6 | 9.7 | 0.00 | 0.00 | 0.00 | 87 | 1019.3 |
| 20260901070405 | 18 | 92 | 1.6 | 14.5 | 0.00 | 0.00 | 0.00 | 87 | 1019.3 |
| 20260901064905 | 17 | 115 | 3.2 | 14.5 | 0.00 | 0.00 | 0.00 | 88 | 1019.2 |
| 20260901064405 | 17 | 165 | 0.0 | 12.9 | 0.00 | 0.00 | 0.00 | 88 | 1019.1 |
| 20260901063905 | 17 | 82 | 1.6 | 14.5 | 0.00 | 0.00 | 0.00 | 88 | 1019.2 |
| 20260901063405 | 17 | 72 | 4.8 | 14.5 | 0.00 | 0.00 | 0.00 | 88 | 1019.1 |
| 20260901062905 | 17 | 144 | 1.6 | 14.5 | 0.00 | 0.00 | 0.00 | 88 | 1019.2 |
| 20260901062405 | 17 | 75 | 8.0 | 29.0 | 0.00 | 0.00 | 0.00 | 88 | 1019.1 |
| 20260901061905 | 17 | 128 | 4.8 | 22.5 | 0.00 | 0.00 | 0.00 | 88 | 1019.0 |
| 20260901061405 | 17 | 102 | 0.0 | 19.3 | 0.00 | 0.00 | 0.00 | 88 | 1019.0 |